Location: Boiro
(42.6475°N, 8.8834°W)
Time: 23:46:57
(UTC+01:00)

Tiros 1 - Pass Details

Date: 08 December 2021
Orbit: 629 x 664 km, 48.4° (Epoch: 26 January)

Event Time Altitude Azimuth Distance (km) Brightness Sun altitude
Rises 19:44:41 0° 260° (W) 2,914 12.2 -18.2°
Reaches altitude 10° 19:47:02 10° 265° (W) 2,011 10.9 -18.6°
Maximum altitude 19:51:35 54° 343° (NNW) 772 7.5 -19.5°
Enters shadow 19:53:01 38° 38° (NE) 974 7.7 -19.7°
